Location: Archemont
(49.1579°N, 1.7598°E)
Time: 20:26:13
(UTC+00:00)

Nadezhda 2 Rocket - Pass Details

Date: 03 February 2023
Orbit: 947 x 1011 km, 83.0° (Epoch: 21 March)

Event Time Altitude Azimuth Distance (km) Brightness Sun altitude
Rises 18:27:26 0° 350° (N) 3,680 7.6 -15.7°
Reaches altitude 10° 18:29:58 10° 350° (N) 2,720 6.9 -16.1°
Maximum altitude 18:36:11 85° 264° (W) 968 4.5 -17.1°
Drops below altitude 10° 18:42:18 10° 176° (S) 2,668 6.8 -18.1°
Sets 18:44:45 0° 175° (S) 3,606 7.5 -18.5°
